• In Kazakhstan
  • List of Countries
  • For 7 days
  • Water Temperature
  • Satellite Maps
  • Weather Map
  • News
  • Weather Widgets
  • user-avatar
    Login

    Hourly Weather Eskişehir

    Today, 22 September, Friday

    Time Temperature Precipitation Wind Pressure Humidity
    00:00 +17°C° 0 mm 3 mps 686 mmHg 78%
    01:00 +17°C° 0 mm 3 mps 686 mmHg 78%
    02:00 +16°C° 0 mm 3 mps 686 mmHg 78%
    03:00 +14°C° 0 mm 3 mps 686 mmHg 77%
    04:00 +15°C° 0 mm 2 mps 686 mmHg 77%
    05:00 +14°C° 0 mm 2 mps 686 mmHg 76%
    06:00 +15°C° 0 mm 2 mps 687 mmHg 68%
    07:00 +16°C° 0 mm 3 mps 687 mmHg 60%
    08:00 +17°C° 0 mm 3 mps 687 mmHg 51%
    09:00 +18°C° 0 mm 3 mps 687 mmHg 46%
    10:00 +19°C° 0 mm 3 mps 688 mmHg 41%
    11:00 +21°C° 0 mm 4 mps 688 mmHg 36%
    12:00 +21°C° 0 mm 4 mps 688 mmHg 34%
    13:00 +22°C° 0 mm 4 mps 688 mmHg 33%
    14:00 +21°C° 0 mm 3 mps 688 mmHg 35%
    15:00 +21°C° 0 mm 4 mps 688 mmHg 37%
    16:00 +20°C° 0 mm 4 mps 688 mmHg 40%
    17:00 +20°C° 0 mm 4 mps 688 mmHg 42%
    18:00 +19°C° 0 mm 3 mps 688 mmHg 48%
    19:00 +17°C° 0 mm 2 mps 688 mmHg 53%
    20:00 +16°C° 0 mm 2 mps 687 mmHg 59%
    21:00 +16°C° 0 mm 1 mps 688 mmHg 62%
    22:00 +15°C° 0 mm 1 mps 688 mmHg 64%
    23:00 +15°C° 0 mm 1 mps 688 mmHg 66%

    Tomorrow, 23 September, Saturday

    Time Temperature Precipitation Wind Pressure Humidity
    00:00 +14°C° 0.1 mm 1 mps 688 mmHg 68%
    01:00 +14°C° 0.1 mm 2 mps 688 mmHg 70%
    02:00 +13°C° 0.1 mm 2 mps 688 mmHg 71%
    03:00 +13°C° 0 mm 2 mps 688 mmHg 74%
    04:00 +12°C° 0 mm 2 mps 688 mmHg 77%
    05:00 +12°C° 0 mm 1 mps 688 mmHg 80%
    06:00 +13°C° 0 mm 2 mps 689 mmHg 75%
    07:00 +14°C° 0 mm 2 mps 689 mmHg 71%
    08:00 +15°C° 0 mm 2 mps 690 mmHg 67%
    09:00 +16°C° 0 mm 2 mps 690 mmHg 59%
    10:00 +17°C° 0 mm 2 mps 690 mmHg 51%
    11:00 +18°C° 0 mm 3 mps 691 mmHg 44%
    12:00 +19°C° 0 mm 3 mps 691 mmHg 41%
    13:00 +20°C° 0 mm 3 mps 690 mmHg 39%
    14:00 +20°C° 0 mm 3 mps 690 mmHg 37%
    15:00 +20°C° 0 mm 3 mps 690 mmHg 39%
    16:00 +19°C° 0 mm 4 mps 690 mmHg 42%
    17:00 +19°C° 0 mm 4 mps 690 mmHg 45%
    18:00 +17°C° 0 mm 3 mps 690 mmHg 52%
    19:00 +16°C° 0 mm 3 mps 690 mmHg 59%
    20:00 +14°C° 0 mm 2 mps 690 mmHg 66%
    21:00 +14°C° 0 mm 2 mps 690 mmHg 69%
    22:00 +13°C° 0 mm 1 mps 690 mmHg 73%
    23:00 +13°C° 0 mm 1 mps 691 mmHg 77%

    Day after tomorrow, 24 September, Sunday

    Time Temperature Precipitation Wind Pressure Humidity
    00:00 +12°C° 0 mm 1 mps 690 mmHg 80%
    01:00 +12°C° 0 mm 1 mps 690 mmHg 82%
    02:00 +11°C° 0 mm 1 mps 690 mmHg 84%
    03:00 +11°C° 0 mm 1 mps 690 mmHg 85%
    04:00 +11°C° 0 mm 1 mps 690 mmHg 87%
    05:00 +10°C° 0 mm 1 mps 690 mmHg 88%
    06:00 +12°C° 0 mm 1 mps 690 mmHg 80%
    07:00 +13°C° 0 mm 1 mps 691 mmHg 73%
    08:00 +14°C° 0 mm 0 mps 691 mmHg 65%
    09:00 +18°C° 0 mm 1 mps 691 mmHg 56%
    10:00 +19°C° 0 mm 1 mps 691 mmHg 46%
    11:00 +20°C° 0 mm 2 mps 691 mmHg 37%
    12:00 +21°C° 0 mm 2 mps 691 mmHg 34%
    13:00 +23°C° 0 mm 2 mps 691 mmHg 31%
    14:00 +24°C° 0 mm 2 mps 691 mmHg 28%
    15:00 +24°C° 0 mm 2 mps 690 mmHg 30%
    16:00 +22°C° 0 mm 3 mps 690 mmHg 31%
    17:00 +22°C° 0 mm 3 mps 690 mmHg 32%
    18:00 +20°C° 0 mm 3 mps 690 mmHg 39%
    19:00 +18°C° 0 mm 2 mps 690 mmHg 45%
    20:00 +17°C° 0 mm 2 mps 690 mmHg 52%
    21:00 +16°C° 0 mm 2 mps 690 mmHg 58%
    22:00 +15°C° 0 mm 1 mps 690 mmHg 63%
    23:00 +14°C° 0 mm 1 mps 690 mmHg 68%

    25 September, Monday

    Time Temperature Precipitation Wind Pressure Humidity
    00:00 +14°C° 0 mm 1 mps 689 mmHg 71%
    01:00 +14°C° 0 mm 1 mps 689 mmHg 74%
    02:00 +13°C° 0 mm 1 mps 689 mmHg 77%
    03:00 +13°C° 0 mm 1 mps 689 mmHg 77%
    04:00 +13°C° 0 mm 1 mps 689 mmHg 77%
    05:00 +13°C° 0 mm 1 mps 689 mmHg 76%
    06:00 +15°C° 0 mm 1 mps 689 mmHg 69%
    07:00 +17°C° 0 mm 2 mps 689 mmHg 62%
    08:00 +18°C° 0 mm 2 mps 690 mmHg 55%
    09:00 +20°C° 0 mm 3 mps 690 mmHg 49%
    10:00 +22°C° 0 mm 3 mps 690 mmHg 43%
    11:00 +25°C° 0 mm 4 mps 690 mmHg 36%
    12:00 +26°C° 0 mm 4 mps 690 mmHg 34%
    13:00 +27°C° 0 mm 4 mps 689 mmHg 31%
    14:00 +27°C° 0 mm 4 mps 689 mmHg 28%
    15:00 +27°C° 0 mm 3 mps 689 mmHg 30%
    16:00 +26°C° 0 mm 3 mps 689 mmHg 32%
    17:00 +26°C° 0 mm 3 mps 688 mmHg 34%
    18:00 +24°C° 0 mm 3 mps 688 mmHg 39%
    19:00 +23°C° 0 mm 2 mps 688 mmHg 45%
    20:00 +20°C° 0 mm 2 mps 688 mmHg 50%
    21:00 +19°C° 0 mm 2 mps 688 mmHg 54%
    22:00 +19°C° 0 mm 2 mps 688 mmHg 58%
    23:00 +19°C° 0 mm 1 mps 688 mmHg 62%

    26 September, Tuesday

    Time Temperature Precipitation Wind Pressure Humidity
    00:00 +19°C° 0.2 mm 1 mps 687 mmHg 64%
    01:00 +19°C° 0.2 mm 1 mps 687 mmHg 66%
    02:00 +18°C° 0.2 mm 1 mps 687 mmHg 68%
    03:00 +18°C° 0.4 mm 1 mps 687 mmHg 69%
    04:00 +18°C° 0.4 mm 1 mps 687 mmHg 71%
    05:00 +18°C° 0.4 mm 1 mps 687 mmHg 72%
    06:00 +19°C° 0.1 mm 1 mps 687 mmHg 67%
    07:00 +20°C° 0.1 mm 1 mps 688 mmHg 62%
    08:00 +20°C° 0.1 mm 1 mps 688 mmHg 57%
    09:00 +22°C° 0 mm 1 mps 688 mmHg 51%
    10:00 +24°C° 0 mm 2 mps 688 mmHg 44%
    11:00 +25°C° 0 mm 2 mps 689 mmHg 38%
    12:00 +26°C° 0 mm 2 mps 688 mmHg 36%
    13:00 +27°C° 0 mm 2 mps 688 mmHg 34%
    14:00 +27°C° 0 mm 2 mps 688 mmHg 32%
    15:00 +27°C° 0.1 mm 2 mps 688 mmHg 35%
    16:00 +26°C° 0.1 mm 2 mps 688 mmHg 38%
    17:00 +25°C° 0.1 mm 2 mps 688 mmHg 42%
    18:00 +24°C° 0.6 mm 2 mps 688 mmHg 49%
    19:00 +21°C° 0.6 mm 2 mps 688 mmHg 56%
    20:00 +20°C° 0.6 mm 2 mps 688 mmHg 64%
    21:00 +19°C° 0.3 mm 2 mps 688 mmHg 68%
    22:00 +18°C° 0.3 mm 2 mps 688 mmHg 72%
    23:00 +18°C° 0.3 mm 2 mps 688 mmHg 76%

    27 September, Wednesday

    Time Temperature Precipitation Wind Pressure Humidity
    00:00 +17°C° 0.1 mm 2 mps 688 mmHg 78%
    01:00 +18°C° 0.1 mm 1 mps 688 mmHg 80%
    02:00 +16°C° 0.1 mm 1 mps 688 mmHg 83%
    03:00 +16°C° 0 mm 1 mps 688 mmHg 83%
    04:00 +16°C° 0 mm 1 mps 688 mmHg 83%
    05:00 +15°C° 0 mm 1 mps 688 mmHg 83%
    06:00 +16°C° 0 mm 1 mps 688 mmHg 76%
    07:00 +19°C° 0 mm 1 mps 689 mmHg 70%
    08:00 +20°C° 0 mm 1 mps 689 mmHg 64%
    09:00 +21°C° 0 mm 1 mps 690 mmHg 57%
    10:00 +23°C° 0 mm 2 mps 690 mmHg 50%
    11:00 +24°C° 0 mm 2 mps 690 mmHg 44%
    12:00 +25°C° 0 mm 2 mps 690 mmHg 41%
    13:00 +25°C° 0 mm 3 mps 690 mmHg 37%
    14:00 +26°C° 0 mm 3 mps 690 mmHg 34%
    15:00 +25°C° 0.1 mm 3 mps 690 mmHg 39%
    16:00 +25°C° 0.1 mm 4 mps 690 mmHg 43%
    17:00 +23°C° 0.1 mm 4 mps 690 mmHg 47%
    18:00 +21°C° 0 mm 4 mps 690 mmHg 56%
    19:00 +20°C° 0 mm 3 mps 690 mmHg 65%
    20:00 +18°C° 0 mm 2 mps 690 mmHg 74%
    21:00 +18°C° 0 mm 2 mps 690 mmHg 79%
    22:00 +17°C° 0 mm 2 mps 690 mmHg 83%
    23:00 +16°C° 0 mm 2 mps 690 mmHg 88%
    Show more